• In United Kingdom
  • List of Countries
  • For 7 days
  • Water Temperature
  • Satellite Maps
  • Weather Map
  • Weather Widgets
  • user-avatar
    Login

    Hourly Weather Gagra

    Today, 17 January, Wednesday

    Time Temperature Precipitation Wind Pressure Humidity
    00:00 +1°C° 0 mm 6 mps 734 mmHg 64%
    01:00 +1°C° 0.1 mm 6 mps 734 mmHg 66%
    02:00 +1°C° 0.1 mm 6 mps 733 mmHg 69%
    03:00 0°C° 0 mm 7 mps 732 mmHg 73%
    04:00 0°C° 0.1 mm 7 mps 732 mmHg 73%
    05:00 0°C° 0.1 mm 7 mps 732 mmHg 73%
    06:00 0°C° 0.1 mm 7 mps 732 mmHg 73%
    07:00 +1°C° 0.3 mm 6 mps 731 mmHg 75%
    08:00 +1°C° 0.3 mm 6 mps 731 mmHg 77%
    09:00 +1°C° 0.3 mm 6 mps 731 mmHg 79%
    10:00 +2°C° 0.4 mm 6 mps 731 mmHg 80%
    11:00 +3°C° 0.4 mm 6 mps 731 mmHg 81%
    12:00 +3°C° 0.4 mm 6 mps 731 mmHg 83%
    13:00 +3°C° 0.2 mm 6 mps 731 mmHg 82%
    14:00 +4°C° 0.2 mm 6 mps 731 mmHg 81%
    15:00 +4°C° 0.2 mm 6 mps 730 mmHg 80%
    16:00 +3°C° 0.1 mm 5 mps 730 mmHg 81%
    17:00 +2°C° 0.1 mm 5 mps 731 mmHg 81%
    18:00 +2°C° 0.1 mm 5 mps 731 mmHg 82%
    19:00 +2°C° 0.1 mm 5 mps 730 mmHg 81%
    20:00 +2°C° 0.1 mm 5 mps 730 mmHg 80%
    21:00 +1°C° 0.1 mm 5 mps 730 mmHg 79%
    22:00 +1°C° 0.1 mm 5 mps 729 mmHg 78%
    23:00 +1°C° 0.1 mm 5 mps 729 mmHg 78%

    Tomorrow, 18 January, Thursday

    Time Temperature Precipitation Wind Pressure Humidity
    00:00 +1°C° 0.1 mm 5 mps 728 mmHg 77%
    01:00 +1°C° 0 mm 6 mps 728 mmHg 77%
    02:00 +1°C° 0 mm 6 mps 728 mmHg 77%
    03:00 +1°C° 0 mm 6 mps 727 mmHg 77%
    04:00 +2°C° 0 mm 6 mps 727 mmHg 77%
    05:00 +2°C° 0 mm 7 mps 726 mmHg 76%
    06:00 +2°C° 0 mm 7 mps 725 mmHg 76%
    07:00 +2°C° 0 mm 7 mps 725 mmHg 74%
    08:00 +2°C° 0 mm 7 mps 724 mmHg 72%
    09:00 +2°C° 0 mm 8 mps 724 mmHg 70%
    10:00 +4°C° 0.1 mm 8 mps 723 mmHg 70%
    11:00 +5°C° 0.1 mm 8 mps 722 mmHg 70%
    12:00 +6°C° 0.1 mm 8 mps 722 mmHg 70%
    13:00 +6°C° 0.1 mm 7 mps 721 mmHg 69%
    14:00 +8°C° 0.1 mm 7 mps 720 mmHg 68%
    15:00 +8°C° 0.1 mm 7 mps 720 mmHg 67%
    16:00 +6°C° 0.2 mm 7 mps 719 mmHg 67%
    17:00 +5°C° 0.2 mm 7 mps 719 mmHg 68%
    18:00 +5°C° 0.2 mm 7 mps 719 mmHg 68%
    19:00 +5°C° 1.3 mm 6 mps 719 mmHg 73%
    20:00 +5°C° 1.3 mm 6 mps 719 mmHg 79%
    21:00 +5°C° 1.3 mm 6 mps 719 mmHg 85%
    22:00 +5°C° 1.6 mm 6 mps 720 mmHg 86%
    23:00 +6°C° 1.6 mm 5 mps 721 mmHg 88%

    Day after tomorrow, 19 January, Friday

    Time Temperature Precipitation Wind Pressure Humidity
    00:00 +6°C° 1.6 mm 5 mps 721 mmHg 89%
    01:00 +6°C° 2.2 mm 5 mps 722 mmHg 91%
    02:00 +6°C° 2.2 mm 5 mps 723 mmHg 93%
    03:00 +5°C° 2.2 mm 5 mps 724 mmHg 95%
    04:00 +5°C° 1.9 mm 5 mps 724 mmHg 95%
    05:00 +5°C° 1.9 mm 5 mps 725 mmHg 95%
    06:00 +3°C° 1.9 mm 5 mps 726 mmHg 95%
    07:00 +4°C° 1.1 mm 4 mps 727 mmHg 94%
    08:00 +4°C° 1.1 mm 4 mps 728 mmHg 94%
    09:00 +4°C° 1.1 mm 4 mps 729 mmHg 93%
    10:00 +4°C° 0.8 mm 4 mps 730 mmHg 92%
    11:00 +4°C° 0.8 mm 4 mps 731 mmHg 92%
    12:00 +4°C° 0.8 mm 4 mps 731 mmHg 91%
    13:00 +4°C° 0.4 mm 4 mps 732 mmHg 90%
    14:00 +4°C° 0.4 mm 4 mps 733 mmHg 89%
    15:00 +4°C° 0.4 mm 4 mps 733 mmHg 88%
    16:00 +3°C° 0.1 mm 4 mps 734 mmHg 88%
    17:00 +2°C° 0.1 mm 3 mps 735 mmHg 89%
    18:00 +2°C° 0.1 mm 3 mps 735 mmHg 89%
    19:00 +2°C° 0 mm 3 mps 736 mmHg 88%
    20:00 +2°C° 0 mm 2 mps 736 mmHg 87%
    21:00 +2°C° 0 mm 2 mps 736 mmHg 86%
    22:00 +1°C° 0 mm 2 mps 736 mmHg 85%
    23:00 -1°C° 0 mm 2 mps 737 mmHg 83%

    20 January, Saturday

    Time Temperature Precipitation Wind Pressure Humidity
    00:00 -1°C° 0 mm 3 mps 737 mmHg 81%
    01:00 -1°C° 0 mm 3 mps 737 mmHg 77%
    02:00 -1°C° 0 mm 3 mps 737 mmHg 73%
    03:00 -2°C° 0 mm 3 mps 737 mmHg 70%
    04:00 -1°C° 0 mm 3 mps 737 mmHg 68%
    05:00 -1°C° 0 mm 3 mps 737 mmHg 67%
    06:00 -2°C° 0 mm 4 mps 737 mmHg 65%
    07:00 -1°C° 0 mm 4 mps 737 mmHg 65%
    08:00 0°C° 0 mm 4 mps 737 mmHg 65%
    09:00 +1°C° 0 mm 4 mps 737 mmHg 65%
    10:00 +4°C° 0 mm 4 mps 737 mmHg 66%
    11:00 +5°C° 0 mm 4 mps 737 mmHg 66%
    12:00 +7°C° 0 mm 5 mps 736 mmHg 67%
    13:00 +7°C° 0 mm 4 mps 736 mmHg 68%
    14:00 +7°C° 0 mm 4 mps 735 mmHg 70%
    15:00 +8°C° 0 mm 4 mps 735 mmHg 72%
    16:00 +6°C° 0 mm 4 mps 735 mmHg 68%
    17:00 +5°C° 0 mm 4 mps 735 mmHg 64%
    18:00 +3°C° 0 mm 4 mps 735 mmHg 60%
    19:00 +3°C° 0 mm 4 mps 734 mmHg 58%
    20:00 +2°C° 0 mm 5 mps 734 mmHg 56%
    21:00 +2°C° 0 mm 5 mps 734 mmHg 53%
    22:00 +2°C° 0 mm 5 mps 734 mmHg 53%
    23:00 +2°C° 0 mm 5 mps 734 mmHg 53%

    21 January, Sunday

    Time Temperature Precipitation Wind Pressure Humidity
    00:00 +3°C° 0 mm 5 mps 734 mmHg 53%
    01:00 +3°C° 0 mm 6 mps 733 mmHg 53%
    02:00 +3°C° 0 mm 6 mps 733 mmHg 52%
    03:00 +3°C° 0 mm 6 mps 733 mmHg 52%
    04:00 +3°C° 0 mm 6 mps 733 mmHg 52%
    05:00 +3°C° 0 mm 6 mps 733 mmHg 52%
    06:00 +3°C° 0 mm 6 mps 733 mmHg 51%
    07:00 +3°C° 0 mm 6 mps 733 mmHg 53%
    08:00 +4°C° 0 mm 6 mps 733 mmHg 54%
    09:00 +5°C° 0 mm 5 mps 733 mmHg 55%
    10:00 +7°C° 0 mm 5 mps 733 mmHg 57%
    11:00 +9°C° 0 mm 5 mps 733 mmHg 59%
    12:00 +10°C° 0 mm 5 mps 732 mmHg 61%
    13:00 +10°C° 0 mm 5 mps 732 mmHg 61%
    14:00 +10°C° 0 mm 5 mps 732 mmHg 61%
    15:00 +10°C° 0 mm 5 mps 732 mmHg 61%
    16:00 +10°C° 0 mm 4 mps 732 mmHg 59%
    17:00 +7°C° 0 mm 4 mps 732 mmHg 57%
    18:00 +5°C° 0 mm 4 mps 732 mmHg 55%
    19:00 +5°C° 0 mm 3 mps 732 mmHg 55%
    20:00 +5°C° 0 mm 3 mps 732 mmHg 55%
    21:00 +5°C° 0 mm 3 mps 733 mmHg 55%
    22:00 +5°C° 0 mm 3 mps 732 mmHg 55%
    23:00 +5°C° 0 mm 3 mps 732 mmHg 55%

    22 January, Monday

    Time Temperature Precipitation Wind Pressure Humidity
    00:00 +5°C° 0 mm 3 mps 732 mmHg 55%
    01:00 +5°C° 0 mm 3 mps 731 mmHg 56%
    02:00 +5°C° 0 mm 3 mps 731 mmHg 56%
    03:00 +7°C° 0 mm 3 mps 730 mmHg 56%
    04:00 +7°C° 0 mm 3 mps 730 mmHg 56%
    05:00 +7°C° 0 mm 3 mps 729 mmHg 56%
    06:00 +7°C° 0 mm 3 mps 729 mmHg 55%
    07:00 +7°C° 0 mm 3 mps 728 mmHg 55%
    08:00 +8°C° 0 mm 3 mps 728 mmHg 56%
    09:00 +8°C° 0 mm 3 mps 728 mmHg 56%
    10:00 +9°C° 0 mm 3 mps 727 mmHg 59%
    11:00 +10°C° 0 mm 3 mps 727 mmHg 63%
    12:00 +12°C° 0 mm 2 mps 727 mmHg 67%
    13:00 +11°C° 0 mm 3 mps 726 mmHg 67%
    14:00 +11°C° 0 mm 3 mps 726 mmHg 66%
    15:00 +11°C° 0 mm 3 mps 726 mmHg 66%
    16:00 +10°C° 0 mm 3 mps 726 mmHg 63%
    17:00 +8°C° 0 mm 3 mps 727 mmHg 60%
    18:00 +7°C° 0 mm 3 mps 727 mmHg 57%
    19:00 +7°C° 0 mm 3 mps 727 mmHg 59%
    20:00 +7°C° 0 mm 3 mps 727 mmHg 60%
    21:00 +7°C° 0 mm 3 mps 727 mmHg 62%
    22:00 +7°C° 0 mm 3 mps 727 mmHg 63%
    23:00 +7°C° 0 mm 3 mps 728 mmHg 65%
    Show more